#timestamp,LO_Frequency,Hit,StdDev 
1523044815.1,286047000.5,N
1523044835.8,286047000.9,N
1523044855.7,286046999.9,N
1523044875.5,286047002.3,N
1523044895.4,286047000.4,N
1523044915.2,286046999.8,N
1523044935.0,286047002.6,N
1523044935.9,286047002.6,N
1523044955.8,286047002.8,N
1523044975.6,286047002.6,N
1523044995.5,286047002.1,N
1523045015.3,286047002.8,N
1523045035.1,286047000.5,N
1523045055.9,286047000.0,N
1523045075.7,286046998.7,N
1523045095.5,286046998.6,N
1523045115.4,286046998.4,N
1523045135.2,286046998.5,N
1523045155.1,286046999.7,N
1523045156.0,286046999.7,N
1523045175.8,286046998.1,N
1523045195.6,286046998.3,N
1523045215.5,286046996.5,N
1523045235.3,286046996.6,N
1523045255.2,286046998.7,N
1523045275.9,286046998.1,N
1523045295.7,286046998.2,N
1523045315.6,286046998.4,N
1523045335.4,286047000.9,N
1523045355.2,286046998.3,N
1523045375.1,286046999.0,N
1523045376.0,286046999.0,N
1523045395.8,286046999.5,N
1523045415.7,286046998.9,N
1523045435.5,286047000.6,N
1523045455.3,286046998.5,N
1523045475.2,286046998.9,N
1523045495.0,286047000.6,N
1523045495.9,286047000.6,N
1523045515.8,286046999.8,N
1523045535.6,286047000.1,N
1523045555.4,286046998.6,N
1523045575.3,286046998.5,N
1523045595.1,286046999.2,N
1523045615.8,286046999.1,N
1523045635.7,286047000.2,N
1523045655.5,286047002.2,N
1523045675.4,286047000.2,N
1523045695.2,286047002.7,N
1523045715.0,286047000.9,N
1523045715.9,286047000.9,N
1523045735.8,286047000.2,N
1523045755.6,286047000.8,N
1523045775.4,286047000.8,N
1523045795.3,286046998.5,N
1523045815.1,286047000.9,N
1523045835.9,286047002.3,N
1523045855.7,286047000.0,N
1523045875.5,286047002.8,N
1523045895.4,286047000.6,N
1523045915.2,286046999.8,N
1523045935.1,286047002.0,N
1523045936.0,286047002.0,N
1523045955.8,286046999.7,N
1523045975.6,286046999.7,N
1523045995.5,286047003.6,N
1523046015.3,286047000.2,N
1523046035.2,286047002.5,N
1523046055.9,286047000.6,N
1523046075.7,286047001.0,N
1523046095.6,286047002.3,N
1523046115.4,286047000.0,N
1523046135.2,286046999.7,N
1523046155.1,286047003.3,N
1523046156.0,286047003.3,N
1523046175.8,286047001.3,N
1523046195.7,286047002.4,N
1523046215.5,286047004.2,Y
1523046235.3,286047002.0,P
1523046255.2,286047001.5,P
1523046275.0,286046998.1,P
1523046275.9,286046998.1,N
1523046295.8,286047000.8,N
1523046315.6,286047000.9,N
1523046335.4,286047000.0,N
1523046355.3,286047002.0,N
1523046375.1,286047002.4,N
1523046395.8,286047001.2,N
1523046415.7,286047000.7,N
1523046435.5,286047002.2,N
1523046455.4,286047002.7,N
1523046475.2,286047000.4,N
1523046495.0,286047000.5,N
1523046495.9,286047000.5,N
1523046515.8,286047001.5,N
1523046535.6,286047000.3,N
1523046555.5,286047001.7,N
1523046575.3,286047000.2,N
1523046595.1,286047000.6,N
1523046615.9,286047000.7,N
1523046635.7,286046996.9,N
1523046655.6,286046997.0,N
1523046675.4,286046997.1,N
1523046695.2,286047000.9,N
1523046715.1,286046998.2,N
1523046716.0,286046998.2,N
1523046735.8,286047000.6,N
1523046755.6,286046996.5,N
1523046775.5,286046997.3,N
1523046795.3,286046998.7,N
1523046815.2,286046997.1,N
1523046835.9,286046996.8,N
1523046855.7,286046998.3,N
1523046875.6,286046998.6,N
1523046895.4,286047000.2,N
1523046915.3,286047000.0,N
1523046935.1,286047000.7,N
1523046936.0,286047000.7,N
1523046955.8,286047000.3,N
1523046975.7,286046998.9,N
1523046995.5,286047000.5,N
1523047015.3,286047001.2,N
1523047035.2,286046999.0,N
1523047055.0,286046999.0,N
1523047055.9,286046999.0,N
1523047075.8,286046998.6,N
1523047095.6,286047000.6,N
1523047115.4,286047000.1,N
1523047135.3,286046998.2,N
1523047155.1,286047000.4,N
1523047175.9,286047002.7,N
1523047195.7,286047002.7,N
1523047215.5,286047002.0,N
1523047235.4,286047000.3,N
1523047255.2,286047001.0,N
1523047275.0,286047002.4,N
1523047275.9,286047002.4,N
1523047295.8,286047004.0,N
1523047315.6,286047004.0,N
1523047335.5,286047004.0,N
1523047355.3,286047001.9,N
1523047375.1,286047002.8,N
1523047395.9,286047000.5,N
1523047415.7,286047000.9,N
1523047435.6,286047002.6,N
1523047455.4,286047000.3,N
1523047475.2,286047002.7,N
1523047495.1,286047002.7,N
1523047496.0,286047002.7,N
1523047515.8,286047002.4,N
1523047535.6,286047002.5,N
1523047555.5,286047000.2,N
1523047575.3,286047001.1,N
1523047595.2,286046998.6,N
1523047615.9,286046998.3,N
1523047635.7,286047001.0,N
1523047655.6,286046998.7,N
1523047675.4,286046998.8,N
1523047695.2,286046999.3,N
1523047715.1,286046998.8,N
1523047716.0,286046998.8,N
1523047735.8,286047001.1,N
1523047755.7,286046998.2,N
1523047775.5,286046998.2,N
1523047795.3,286047001.1,N
1523047815.2,286047000.7,N
1523047835.0,286047001.2,N
1523047835.9,286047001.2,N
1523047855.8,286046998.6,N
1523047875.6,286046999.1,N
1523047895.4,286046999.1,N
1523047915.3,286046999.0,N
1523047935.1,286046999.2,N
1523047955.9,286046998.8,N
1523047975.7,286046998.2,N
1523047995.5,286046998.3,N
1523048015.4,286046998.1,N
1523048035.2,286046999.3,N
1523048055.1,286047001.0,N
1523048056.0,286047001.0,N
1523048075.8,286046998.1,N
1523048095.6,286046998.3,N
1523048115.5,286046996.5,Y
1523048135.3,286046999.6,P
1523048155.1,286046999.6,P
1523048175.9,286046996.7,P
1523048195.7,286046997.0,N
1523048215.6,286046997.7,N
1523048235.4,286046996.8,N
1523048255.2,286046997.4,N
1523048275.1,286046997.2,N
1523048276.0,286046997.2,N
1523048295.8,286046999.2,N
1523048315.7,286046997.8,N
1523048335.5,286046997.0,N
1523048355.3,286046999.4,N
1523048375.2,286046998.8,N
1523048395.0,286046999.0,N
1523048395.9,286046999.0,N
